GW3580 Weather Reports


time (UTC)temp
C
wind
direction
speed
KPH
gust
KPH
rain 1hr
cm
rain 24hr
cm
rain mn
cm
humidity
%
barometer
mb
20260904234612 27 254 6.4 8.0 0.00 0.00 0.00 33 1010.9
20260904234107 28 245 4.8 6.4 0.00 0.00 0.00 34 1010.9
20260904233603 28 2 3.2 3.2 0.00 0.00 0.00 34 1010.8
20260904233058 27 273 11.3 12.9 0.00 0.00 0.00 35 1011.0
20260904232555 28 232 6.4 9.7 0.00 0.00 0.00 35 1011.0
20260904232051 28 350 1.6 1.6 0.00 0.00 0.00 36 1011.0
20260904231546 28 244 3.2 3.2 0.00 0.00 0.00 35 1011.0
20260904231041 28 240 3.2 3.2 0.00 0.00 0.00 35 1011.1
20260904230540 28 314 1.6 1.6 0.00 0.00 0.00 35 1011.1
20260904230036 28 54 3.2 3.2 0.00 0.00 0.00 35 1011.2
20260904225534 27 67 4.8 6.4 0.00 0.00 0.00 36 1011.1
20260904225033 28 57 1.6 1.6 0.00 0.00 0.00 34 1011.4
20260904224529 27 229 3.2 3.2 0.00 0.00 0.00 35 1011.2
20260904224028 28 253 6.4 8.0 0.00 0.00 0.00 36 1011.4
20260904223527 27 271 1.6 1.6 0.00 0.00 0.00 36 1011.4
20260904223024 28 225 3.2 6.4 0.00 0.00 0.00 36 1011.6
20260904222519 28 271 6.4 8.0 0.00 0.00 0.00 35 1011.5
20260904222014 28 313 1.6 1.6 0.00 0.00 0.00 35 1011.6
20260904221508 28 58 3.2 3.2 0.00 0.00 0.00 36 1011.7
20260904221003 28 352 3.2 3.2 0.00 0.00 0.00 37 1011.9
20260904220503 27 213 4.8 6.4 0.00 0.00 0.00 36 1011.8
20260904215958 28 304 4.8 6.4 0.00 0.00 0.00 37 1011.8
20260904215453 28 277 1.6 3.2 0.00 0.00 0.00 37 1012.0
20260904214948 28 28 1.6 1.6 0.00 0.00 0.00 37 1012.0
20260904214444 27 309 1.6 1.6 0.00 0.00 0.00 39 1012.0
20260904213939 27 14 3.2 3.2 0.00 0.00 0.00 39 1012.0
20260904213432 27 265 3.2 3.2 0.00 0.00 0.00 40 1012.0
20260904212929 27 219 1.6 1.6 0.00 0.00 0.00 40 1012.1
20260904212428 27 211 0.0 1.6 0.00 0.00 0.00 40 1012.1
20260904211924 27 62 4.8 6.4 0.00 0.00 0.00 40 1012.2
20260904211418 27 32 3.2 6.4 0.00 0.00 0.00 40 1012.1
20260904210914 26 262 0.0 0.0 0.00 0.00 0.00 40 1012.2
20260904210413 26 254 1.6 3.2 0.00 0.00 0.00 41 1012.4
20260904205909 26 244 6.4 8.0 0.00 0.00 0.00 41 1012.2
20260904205404 27 261 6.4 8.0 0.00 0.00 0.00 43 1012.4
20260904204901 26 63 1.6 1.6 0.00 0.00 0.00 42 1012.4
20260904204357 27 20 4.8 6.4 0.00 0.00 0.00 43 1012.6
20260904203853 26 323 4.8 6.4 0.00 0.00 0.00 43 1012.4
20260904203349 26 63 1.6 3.2 0.00 0.00 0.00 41 1012.8
20260904202844 26 245 6.4 8.0 0.00 0.00 0.00 43 1012.6
20260904202341 26 287 4.8 8.0 0.00 0.00 0.00 44 1012.6
20260904201836 25 338 3.2 3.2 0.00 0.00 0.00 44 1012.5
20260904201336 26 245 6.4 8.0 0.00 0.00 0.00 45 1012.6
20260904200831 26 352 0.0 0.0 0.00 0.00 0.00 44 1012.8
20260904200330 25 13 3.2 3.2 0.00 0.00 0.00 46 1012.5
20260904195825 25 257 1.6 1.6 0.00 0.00 0.00 47 1012.6
20260904195323 25 256 6.4 9.7 0.00 0.00 0.00 47 1012.7
20260904194818 25 253 1.6 3.2 0.00 0.00 0.00 46 1012.8
20260904194317 25 311 3.2 3.2 0.00 0.00 0.00 48 1012.6
20260904193813 25 274 8.0 9.7 0.00 0.00 0.00 48 1012.9
20260904193308 25 89 0.0 0.0 0.00 0.00 0.00 46 1012.9
20260904192803 25 353 0.0 0.0 0.00 0.00 0.00 49 1013.1
20260904192258 25 289 3.2 3.2 0.00 0.00 0.00 49 1013.1
20260904191755 25 267 6.4 8.0 0.00 0.00 0.00 49 1013.1
20260904191251 25 264 4.8 6.4 0.00 0.00 0.00 49 1013.1
20260904190748 25 11 0.0 1.6 0.00 0.00 0.00 49 1013.2
20260904190243 25 289 4.8 6.4 0.00 0.00 0.00 51 1013.1
20260904185739 24 285 3.2 3.2 0.00 0.00 0.00 51 1013.0
20260904185234 24 195 3.2 3.2 0.00 0.00 0.00 51 1013.2
20260904184733 24 302 1.6 3.2 0.00 0.00 0.00 52 1013.3
20260904184229 23 297 4.8 6.4 0.00 0.00 0.00 52 1013.1
20260904183725 23 251 8.0 9.7 0.00 0.00 0.00 52 1013.2
20260904183225 23 7 3.2 6.4 0.00 0.00 0.00 53 1013.2
20260904182720 23 269 8.0 9.7 0.00 0.00 0.00 54 1013.3
20260904182215 23 260 8.0 9.7 0.00 0.00 0.00 54 1013.4
20260904181710 23 267 8.0 9.7 0.00 0.00 0.00 54 1013.2
20260904181210 23 26 4.8 8.0 0.00 0.00 0.00 55 1013.3
20260904180706 23 283 4.8 8.0 0.00 0.00 0.00 53 1012.9
20260904180201 23 78 3.2 3.2 0.00 0.00 0.00 53 1013.0
20260904175700 23 271 3.2 3.2 0.00 0.00 0.00 55 1013.1
20260904175158 23 17 4.8 8.0 0.00 0.00 0.00 56 1013.0
20260904174653 22 253 4.8 6.4 0.00 0.00 0.00 56 1013.0
20260904174149 22 321 1.6 1.6 0.00 0.00 0.00 57 1013.2
20260904173645 22 200 3.2 6.4 0.00 0.00 0.00 58 1013.0
20260904173139 22 237 8.0 9.7 0.00 0.00 0.00 59 1012.9
20260904172636 22 202 3.2 3.2 0.00 0.00 0.00 59 1012.9
20260904172135 22 262 3.2 3.2 0.00 0.00 0.00 59 1013.0
20260904171631 22 282 9.7 9.7 0.00 0.00 0.00 60 1013.0
20260904171126 22 264 3.2 6.4 0.00 0.00 0.00 60 1013.1
20260904170622 22 335 6.4 8.0 0.00 0.00 0.00 61 1013.0
20260904170118 21 291 8.0 9.7 0.00 0.00 0.00 62 1012.8
20260904165616 21 255 8.0 9.7 0.00 0.00 0.00 62 1012.7
20260904165116 21 257 8.0 11.3 0.00 0.00 0.00 63 1013.0
20260904164610 21 329 3.2 6.4 0.00 0.00 0.00 63 1012.9
20260904164106 21 268 6.4 8.0 0.00 0.00 0.00 63 1012.8
20260904163601 21 269 4.8 6.4 0.00 0.00 0.00 64 1012.8
20260904163056 21 240 3.2 6.4 0.00 0.00 0.00 64 1012.9
20260904162550 21 292 8.0 9.7 0.00 0.00 0.00 65 1012.6
20260904162046 20 251 1.6 1.6 0.00 0.00 0.00 66 1012.7
20260904161540 20 245 6.4 8.0 0.00 0.00 0.00 67 1012.4
20260904161036 20 261 6.4 6.4 0.00 0.00 0.00 68 1012.5
20260904160531 20 245 3.2 3.2 0.00 0.00 0.00 69 1012.7
20260904160027 20 337 4.8 8.0 0.00 0.00 0.00 70 1012.6
20260904155520 19 289 0.0 1.6 0.00 0.00 0.00 71 1012.8
20260904155020 19 242 8.0 9.7 0.00 0.00 0.00 71 1012.6
20260904154514 19 311 3.2 3.2 0.00 0.00 0.00 72 1012.6
20260904154009 19 260 1.6 3.2 0.00 0.00 0.00 72 1012.7
20260904153509 19 257 1.6 1.6 0.00 0.00 0.00 73 1012.9
20260904153006 18 260 3.2 3.2 0.00 0.00 0.00 74 1012.7
20260904152501 18 54 1.6 1.6 0.00 0.00 0.00 75 1012.7
20260904151955 18 245 3.2 3.2 0.00 0.00 0.00 75 1012.8
20260904151450 18 332 1.6 1.6 0.00 0.00 0.00 76 1012.6
20260904150945 18 121 3.2 3.2 0.00 0.00 0.00 76 1012.4
20260904150440 17 186 0.0 0.0 0.00 0.00 0.00 78 1012.4
20260904145938 17 287 4.8 6.4 0.00 0.00 0.00 78 1012.4
20260904145434 17 257 4.8 6.4 0.00 0.00 0.00 79 1012.5
20260904144930 17 231 3.2 3.2 0.00 0.00 0.00 80 1012.5
20260904144425 17 226 1.6 3.2 0.00 0.00 0.00 80 1012.3
20260904143921 17 262 3.2 3.2 0.00 0.00 0.00 80 1012.3
20260904143417 17 47 0.0 0.0 0.00 0.00 0.00 81 1012.2
20260904142913 16 39 0.0 0.0 0.00 0.00 0.00 82 1012.1
20260904142409 16 40 0.0 0.0 0.00 0.00 0.00 83 1012.1
20260904141903 16 47 0.0 0.0 0.00 0.00 0.00 83 1012.1
20260904141358 16 63 1.6 1.6 0.00 0.00 0.00 83 1012.0
20260904140855 16 46 0.0 0.0 0.00 0.00 0.00 84 1011.8
20260904140349 16 20 0.0 1.6 0.00 0.00 0.00 84 1011.9
20260904135849 16 17 0.0 0.0 0.00 0.00 0.00 84 1011.7
20260904135343 16 17 0.0 0.0 0.00 0.00 0.00 84 1011.7
20260904134840 15 1 0.0 0.0 0.00 0.00 0.00 84 1011.7
20260904134339 15 359 0.0 0.0 0.00 0.00 0.00 84 1011.7
20260904133834 16 9 0.0 1.6 0.00 0.00 0.00 83 1011.6
20260904133330 16 0 0.0 0.0 0.00 0.00 0.00 83 1011.5
20260904132829 16 15 0.0 0.0 0.00 0.00 0.00 83 1011.5
20260904132324 16 359 0.0 0.0 0.00 0.00 0.00 83 1011.5
20260904131824 16 275 0.0 0.0 0.00 0.00 0.00 83 1011.3
20260904131319 16 291 0.0 1.6 0.00 0.00 0.00 83 1011.6
20260904130814 16 322 0.0 1.6 0.00 0.00 0.00 83 1011.4
20260904130313 16 267 1.6 1.6 0.00 0.00 0.00 83 1011.5
20260904125809 16 8 0.0 0.0 0.00 0.00 0.00 82 1011.3
20260904125306 16 280 0.0 1.6 0.00 0.00 0.00 82 1011.1
20260904124804 16 295 0.0 1.6 0.00 0.00 0.00 82 1011.1
20260904124301 16 210 0.0 0.0 0.00 0.00 0.00 82 1011.2
20260904123755 16 250 1.6 1.6 0.00 0.00 0.00 82 1011.2
20260904123251 16 245 1.6 1.6 0.00 0.00 0.00 82 1011.0
20260904122746 16 284 0.0 1.6 0.00 0.00 0.00 81 1011.0
20260904122245 16 260 1.6 1.6 0.00 0.00 0.00 81 1011.0
20260904121741 16 276 1.6 1.6 0.00 0.00 0.00 81 1011.1
20260904121237 16 274 1.6 1.6 0.00 0.00 0.00 81 1011.2
20260904120733 16 284 0.0 1.6 0.00 0.00 0.00 81 1011.1
20260904120229 16 264 3.2 6.4 0.00 0.00 0.00 80 1010.8
20260904115724 16 261 3.2 6.4 0.00 0.00 0.00 80 1011.2
20260904115223 16 259 1.6 1.6 0.00 0.00 0.00 80 1011.4
20260904114719 16 280 1.6 1.6 0.00 0.00 0.00 80 1011.1
20260904114213 16 139 0.0 1.6 0.00 0.00 0.00 80 1011.2
20260904113708 17 244 1.6 1.6 0.00 0.00 0.00 80 1010.9
20260904113207 16 242 1.6 3.2 0.00 0.00 0.00 80 1011.0
20260904112703 16 255 3.2 3.2 0.00 0.00 0.00 80 1010.9
20260904112158 16 106 0.0 0.0 0.00 0.00 0.00 79 1010.9
20260904111654 17 2 0.0 0.0 0.00 0.00 0.00 79 1010.9
20260904111149 17 42 1.6 3.2 0.00 0.00 0.00 79 1010.9
20260904110644 17 67 1.6 3.2 0.00 0.00 0.00 79 1010.6
20260904110143 17 61 0.0 0.0 0.00 0.00 0.00 79 1010.6
20260904105638 17 210 0.0 1.6 0.00 0.00 0.00 79 1010.6
20260904105133 17 255 1.6 1.6 0.00 0.00 0.00 79 1010.9
20260904104629 17 132 0.0 0.0 0.00 0.00 0.00 78 1010.5
20260904104124 17 229 1.6 1.6 0.00 0.00 0.00 79 1010.6
20260904103620 17 69 0.0 0.0 0.00 0.00 0.00 79 1010.5
20260904103116 17 61 0.0 1.6 0.00 0.00 0.00 78 1010.5
20260904102612 17 223 1.6 1.6 0.00 0.00 0.00 78 1010.3
20260904102107 17 174 0.0 0.0 0.00 0.00 0.00 78 1010.4
20260904101603 17 14 0.0 0.0 0.00 0.00 0.00 78 1010.3
20260904101058 17 284 1.6 3.2 0.00 0.00 0.00 77 1010.5
20260904100555 17 273 3.2 3.2 0.00 0.00 0.00 77 1010.3
20260904100049 17 238 3.2 3.2 0.00 0.00 0.00 77 1010.2
20260904095544 17 243 3.2 3.2 0.00 0.00 0.00 76 1010.3
20260904095039 17 264 3.2 3.2 0.00 0.00 0.00 76 1010.2
20260904094533 17 240 6.4 8.0 0.00 0.00 0.00 76 1010.2
20260904094028 17 261 4.8 6.4 0.00 0.00 0.00 76 1010.0
20260904093525 17 294 3.2 3.2 0.00 0.00 0.00 75 1010.4
20260904093020 17 282 3.2 6.4 0.00 0.00 0.00 75 1010.1
20260904092516 17 264 3.2 3.2 0.00 0.00 0.00 75 1010.1
20260904092012 17 249 4.8 8.0 0.00 0.00 0.00 74 1010.0
20260904091508 18 255 4.8 6.4 0.00 0.00 0.00 74 1010.0
20260904091008 18 262 1.6 1.6 0.00 0.00 0.00 74 1009.9
20260904090503 18 250 6.4 8.0 0.00 0.00 0.00 73 1010.2
20260904090003 18 256 6.4 8.0 0.00 0.00 0.00 73 1010.0
20260904085458 18 281 6.4 8.0 0.00 0.00 0.00 73 1010.0
20260904084953 18 243 1.6 3.2 0.00 0.00 0.00 73 1010.2
20260904084449 18 239 4.8 6.4 0.00 0.00 0.00 73 1010.2
20260904083944 18 258 3.2 3.2 0.00 0.00 0.00 72 1010.0
20260904083441 18 227 3.2 3.2 0.00 0.00 0.00 72 1010.2
20260904082936 18 235 8.0 9.7 0.00 0.00 0.00 72 1010.1
20260904082431 18 240 4.8 9.7 0.00 0.00 0.00 71 1010.2
20260904081926 18 277 3.2 3.2 0.00 0.00 0.00 71 1010.2
20260904081422 18 275 3.2 3.2 0.00 0.00 0.00 71 1010.0
20260904080918 18 266 1.6 1.6 0.00 0.00 0.00 70 1010.1
20260904080413 19 251 1.6 3.2 0.00 0.00 0.00 70 1010.2
20260904075909 19 246 3.2 6.4 0.00 0.00 0.00 70 1010.0
20260904075404 19 243 4.8 6.4 0.00 0.00 0.00 70 1010.0
20260904074903 19 246 1.6 3.2 0.00 0.00 0.00 69 1010.1
20260904074358 19 255 4.8 6.4 0.00 0.00 0.00 70 1010.0
20260904073854 19 238 4.8 6.4 0.00 0.00 0.00 69 1009.8
20260904073349 19 243 6.4 8.0 0.00 0.00 0.00 69 1009.8
20260904072844 19 296 4.8 6.4 0.00 0.00 0.00 69 1009.8
20260904072339 19 230 1.6 3.2 0.00 0.00 0.00 69 1009.8
20260904071834 20 262 3.2 3.2 0.00 0.00 0.00 68 1009.8
20260904071330 20 259 4.8 8.0 0.00 0.00 0.00 68 1009.8
20260904070825 20 243 4.8 6.4 0.00 0.00 0.00 68 1009.7
20260904070323 20 258 3.2 3.2 0.00 0.00 0.00 67 1009.9
20260904065818 20 250 4.8 6.4 0.00 0.00 0.00 67 1009.8
20260904065314 20 341 4.8 6.4 0.00 0.00 0.00 67 1010.0
20260904064809 20 280 4.8 6.4 0.00 0.00 0.00 66 1009.9
20260904064305 20 235 1.6 3.2 0.00 0.00 0.00 65 1009.8
20260904063801 20 243 4.8 6.4 0.00 0.00 0.00 65 1009.9
20260904063256 20 271 4.8 6.4 0.00 0.00 0.00 64 1009.7
20260904062752 20 249 4.8 6.4 0.00 0.00 0.00 64 1010.0
20260904062248 20 242 3.2 3.2 0.00 0.00 0.00 63 1009.7
20260904061743 20 245 6.4 8.0 0.00 0.00 0.00 63 1009.7
20260904061239 20 229 3.2 3.2 0.00 0.00 0.00 63 1009.7
20260904060736 20 263 3.2 3.2 0.00 0.00 0.00 62 1009.5
20260904060231 20 262 4.8 6.4 0.00 0.00 0.00 61 1009.4
20260904055726 20 295 4.8 6.4 0.00 0.00 0.00 61 1009.5
20260904055221 20 278 4.8 6.4 0.00 0.00 0.00 60 1009.4
20260904054717 20 262 1.6 1.6 0.00 0.00 0.00 60 1009.5
20260904054213 20 283 4.8 6.4 0.00 0.00 0.00 60 1009.4
20260904053708 21 27 0.0 0.0 0.00 0.00 0.00 58 1009.6
20260904053207 21 255 4.8 6.4 0.00 0.00 0.00 58 1009.4
20260904052704 21 244 4.8 6.4 0.00 0.00 0.00 57 1009.5
20260904052200 21 247 3.2 3.2 0.00 0.00 0.00 56 1009.6
20260904051656 21 247 3.2 3.2 0.00 0.00 0.00 55 1009.6
20260904051150 21 256 6.4 9.7 0.00 0.00 0.00 55 1009.6
20260904050646 21 258 6.4 8.0 0.00 0.00 0.00 54 1009.6
20260904050137 21 207 4.8 6.4 0.00 0.00 0.00 53 1009.5
20260904045636 22 296 9.7 11.3 0.00 0.00 0.00 52 1009.8
20260904045131 22 263 6.4 8.0 0.00 0.00 0.00 50 1009.7
20260904044626 22 262 8.0 11.3 0.00 0.00 0.00 50 1009.5
20260904044123 22 235 8.0 11.3 0.00 0.00 0.00 48 1009.4
20260904043619 22 253 9.7 12.9 0.00 0.00 0.00 48 1009.4
20260904043115 22 264 3.2 3.2 0.00 0.00 0.00 47 1009.3
20260904042611 22 234 4.8 6.4 0.00 0.00 0.00 46 1009.4
20260904042106 23 261 6.4 8.0 0.00 0.00 0.00 45 1009.2
20260904041601 23 250 3.2 3.2 0.00 0.00 0.00 43 1009.3
20260904041057 23 298 6.4 8.0 0.00 0.00 0.00 41 1009.2
20260904040557 23 276 3.2 3.2 0.00 0.00 0.00 43 1009.1
20260904040054 23 293 8.0 9.7 0.00 0.00 0.00 44 1009.0
20260904035549 23 241 4.8 6.4 0.00 0.00 0.00 48 1008.9
20260904035049 23 259 3.2 3.2 0.00 0.00 0.00 47 1009.1
20260904034543 23 242 1.6 1.6 0.00 0.00 0.00 47 1008.8
20260904034039 23 258 0.0 0.0 0.00 0.00 0.00 47 1009.0
20260904033535 23 264 1.6 3.2 0.00 0.00 0.00 47 1009.1
20260904033032 23 262 1.6 1.6 0.00 0.00 0.00 47 1008.7
20260904032528 24 271 0.0 0.0 0.00 0.00 0.00 47 1008.6
20260904032026 24 292 0.0 1.6 0.00 0.00 0.00 46 1008.4
20260904031521 24 307 0.0 0.0 0.00 0.00 0.00 45 1008.5
20260904031017 24 269 1.6 1.6 0.00 0.00 0.00 46 1008.5
20260904030513 24 313 0.0 0.0 0.00 0.00 0.00 47 1008.5
20260904030008 24 345 0.0 0.0 0.00 0.00 0.00 46 1008.5
20260904025504 25 294 0.0 0.0 0.00 0.00 0.00 45 1008.4
20260904025004 25 294 0.0 0.0 0.00 0.00 0.00 44 1008.4
20260904024459 25 294 0.0 0.0 0.00 0.00 0.00 45 1008.7
20260904023955 25 292 1.6 1.6 0.00 0.00 0.00 44 1008.8
20260904023451 26 273 3.2 3.2 0.00 0.00 0.00 44 1008.5
20260904022950 26 269 1.6 3.2 0.00 0.00 0.00 41 1008.7
20260904022446 26 355 0.0 1.6 0.00 0.00 0.00 42 1008.4
20260904021943 26 69 0.0 0.0 0.00 0.00 0.00 41 1008.6
20260904021439 27 69 0.0 0.0 0.00 0.00 0.00 40 1008.6
20260904020939 27 69 0.0 0.0 0.00 0.00 0.00 38 1008.7
20260904020434 27 354 0.0 0.0 0.00 0.00 0.00 37 1008.9
20260904015932 27 354 0.0 1.6 0.00 0.00 0.00 33 1008.9
20260904015428 28 60 0.0 0.0 0.00 0.00 0.00 36 1009.0
20260904014926 28 321 0.0 0.0 0.00 0.00 0.00 35 1008.8
20260904014422 28 132 1.6 1.6 0.00 0.00 0.00 31 1008.8
20260904013917 28 15 1.6 1.6 0.00 0.00 0.00 31 1009.0
20260904013413 29 280 0.0 0.0 0.00 0.00 0.00 31 1008.9
20260904012909 29 12 1.6 1.6 0.00 0.00 0.00 31 1009.0
20260904012409 30 24 0.0 0.0 0.00 0.00 0.00 29 1009.0
20260904011903 29 31 0.0 0.0 0.00 0.00 0.00 29 1008.7
20260904011358 30 19 0.0 0.0 0.00 0.00 0.00 29 1008.9
20260904010853 30 37 0.0 0.0 0.00 0.00 0.00 29 1009.0
20260904010350 30 55 0.0 1.6 0.00 0.00 0.00 29 1008.8
20260904005844 30 58 0.0 0.0 0.00 0.00 0.00 27 1009.0
20260904005340 30 81 0.0 1.6 0.00 0.00 0.00 28 1009.0
20260904004835 30 239 0.0 1.6 0.00 0.00 0.00 29 1009.0
20260904004332 30 339 1.6 1.6 0.00 0.00 0.00 28 1009.1
20260904003832 30 250 1.6 3.2 0.00 0.00 0.00 28 1009.1
20260904003328 30 291 3.2 3.2 0.00 0.00 0.00 28 1009.1
20260904002823 29 283 0.0 1.6 0.00 0.00 0.00 29 1009.2
20260904002319 30 275 4.8 6.4 0.00 0.00 0.00 29 1009.1
20260904001818 30 39 1.6 3.2 0.00 0.00 0.00 29 1009.2
20260904001313 30 259 6.4 8.0 0.00 0.00 0.00 30 1009.1
20260904000808 30 247 6.4 8.0 0.00 0.00 0.00 28 1009.1
20260904000307 30 276 1.6 1.6 0.00 0.00 0.00 28 1009.2
20260903235802 30 258 3.2 3.2 0.00 0.00 0.00 29 1009.3
20260903235259 30 273 6.4 8.0 0.00 0.00 0.00 29 1009.5